Regional Weather Roundup
Issued by NWS

Home | Current Version | Previous Version | Graphics & Text | Print | Product List | Glossary On
Versions: 1 2 3 4 5 6 7 8 9 10 11 12 13 14 15 16 17 18 19 20 21 22 23 24 25 26 27 28 29 30 31 32 33 34 35 36 37 38 39 40 41 42 43 44 45 46 47 48 49 50
000
ASUS43 KFSD 281602
RWRSD

WEATHER ROUNDUP FOR SOUTH DAKOTA
NATIONAL WEATHER SERVICE SIOUX FALLS SD
1100 AM CDT FRI APR 28 2017

NOTE: "FAIR" INDICATES FEW OR NO CLOUDS BELOW 12,000 FEET WITH NO
SIGNIFICANT WEATHER AND/OR OBSTRUCTIONS TO VISIBILITY.


SDZ001>005-009-010-012>017-281700-
NORTHWEST AND NORTH CENTRAL SOUTH DAKOTA

CITY           SKY/WX    TMP DP  RH WIND       PRES   REMARKS
BUFFALO          N/A     42  29  59 E13       29.90R
FAITH            N/A     43  31  62 NE15G23   29.95R
MOBRIDGE       SUNNY     49  24  37 NE15      29.96R
$$

SDZ012>016-024>037-041>051-057-063-072>074-281700-
SOUTHWEST AND SOUTH CENTRAL SOUTH DAKOTA

CITY           SKY/WX    TMP DP  RH WIND       PRES   REMARKS
RAPID CTY ARPT CLOUDY    41  28  60 E14       29.92R
PIERRE         PTSUNNY   43  28  55 E16       29.95R
CUSTER         LGT SNOW  28  23  81 E14G24    29.82R WCI  17
ELLSWORTH AFB  CLOUDY    40  29  65 E10       29.92R
PHILIP         PTSUNNY   42  32  67 E16       29.94R
PINE RIDGE     LGT SNOW  36  34  92 E15       29.86R FOG
SPEARFISH      FAIR      37  30  75 E17       29.91R
WINNER         FAIR      43  31  62 E17       29.92R
$$

SDZ004>011-016>023-039-040-281700-
NORTHEAST SOUTH DAKOTA

CITY           SKY/WX    TMP DP  RH WIND       PRES   REMARKS
ABERDEEN       SUNNY     45  25  45 N17G24    29.98S
WATERTOWN      CLOUDY    42  25  50 NE20G25   29.93R
BROOKINGS      CLOUDY    41  25  53 NE17      29.92S
SISSETON         N/A     44  29  55 NE15      29.97R
$$

SDZ017-020-022-023-036>040-048>070-281700-
SOUTHEAST SOUTH DAKOTA

CITY           SKY/WX    TMP DP  RH WIND       PRES   REMARKS
SIOUX FALLS    CLOUDY    42  30  62 NE15      29.94R
HURON          CLOUDY    46  24  42 NE14      29.95R
CHAMBERLAIN    CLOUDY    46  28  49 NE16      29.95R
MITCHELL       CLOUDY    45  27  49 NE15      29.96R
YANKTON        CLOUDY    37  30  75 NE8       29.92S
$$

ABBREVIATIONS USED IN REMARKS
   TC - TEMPERATURE IN CELSIUS
  WCI - WIND CHILL INDEX
   HX - HEAT INDEX
  VSB - VISIBILITY





USA.gov is the U.S. government's official web portal to all federal, state and local government web resources and services.